Location: Igri�s
(42.2144°N, 0.4320°W)
Time: 01:19:36
(UTC+00:00)

deb Transtage 4 - Visible Passes

Search period start: 27 February 2021 00:00
Search period end: 09 March 2021 00:00
Orbit: 615 x 657 km, 32.3° (Epoch: 26 February)

Date Brightness Start Highest point End Pass type
(mag) Time Alt. Az. Time Alt. Az. Time Alt. Az.
01 Mar ? 05:49:33 10° SSW 05:52:03 14° SSE 05:54:32 10° SE visible
03 Mar ? 04:50:18 10° S 04:52:41 14° SSE 04:55:06 10° SE visible
04 Mar ? 05:11:03 11° SSW 05:14:11 19° SSE 05:17:32 10° ESE visible
05 Mar ? 03:54:21 13° SE 03:54:21 13° SE 03:55:40 10° SE visible
05 Mar ? 05:31:58 10° SW 05:35:44 23° S 05:39:28 10° ESE visible
06 Mar ? 04:14:59 19° SSE 04:14:59 19° SSE 04:18:08 10° ESE visible
06 Mar ? 05:53:28 10° SW 05:57:19 25° S 06:01:08 10° SE visible
07 Mar ? 04:35:35 22° S 04:36:20 23° S 04:40:06 10° ESE visible
08 Mar ? 04:56:11 20° SSW 04:57:56 25° S 05:01:47 10° SE visible
